| time (UTC) | temp F | wind direction | speed knots | gust knots | rain 1hr in | rain 24hr in | rain mn in | humidity % | barometer mb |
| 20260510083018 | 75 | 159 | 5.2 | 8.7 | 0.00 | 0.00 | 0.00 | 91 | 1012.4 |
| 20260510081536 | 74 | 172 | 6.1 | 9.6 | 0.00 | 0.00 | 0.00 | 91 | 1012.3 |
| 20260510080029 | 74 | 178 | 6.1 | 12.2 | 0.00 | 0.00 | 0.00 | 91 | 1012.3 |
| 20260510074528 | 74 | 147 | 6.1 | 10.4 | 0.00 | 0.00 | 0.00 | 91 | 1012.2 |
| 20260510073051 | 74 | 138 | 5.2 | 7.8 | 0.00 | 0.00 | 0.00 | 90 | 1012.4 |
| 20260510071542 | 74 | 121 | 4.3 | 6.1 | 0.00 | 0.00 | 0.00 | 89 | 1012.6 |
| 20260510070046 | 75 | 151 | 4.3 | 6.1 | 0.00 | 0.00 | 0.00 | 89 | 1012.6 |
| 20260510064550 | 75 | 144 | 4.3 | 7.8 | 0.00 | 0.00 | 0.00 | 89 | 1012.5 |
| 20260510063032 | 75 | 118 | 4.3 | 7.8 | 0.00 | 0.00 | 0.00 | 89 | 1012.7 |
| 20260510061600 | 75 | 123 | 5.2 | 11.3 | 0.00 | 0.00 | 0.00 | 89 | 1012.9 |
| 20260510061508 | 75 | 120 | 6.1 | 11.3 | 0.00 | 0.00 | 0.00 | 89 | 1013.0 |
| 20260510060005 | 75 | 156 | 7.0 | 13.9 | 0.00 | 0.00 | 0.00 | 89 | 1012.7 |
| 20260510054521 | 75 | 140 | 7.8 | 13.9 | 0.00 | 0.00 | 0.00 | 89 | 1012.9 |
| 20260510053030 | 75 | 134 | 6.1 | 9.6 | 0.00 | 0.00 | 0.00 | 88 | 1013.4 |
| 20260510051524 | 75 | 117 | 4.3 | 7.8 | 0.00 | 0.00 | 0.00 | 86 | 1013.6 |
| 20260510050027 | 75 | 115 | 4.3 | 7.8 | 0.00 | 0.00 | 0.00 | 85 | 1013.5 |
| 20260510044540 | 76 | 128 | 7.0 | 9.6 | 0.00 | 0.00 | 0.00 | 86 | 1013.2 |
| 20260510043009 | 76 | 128 | 5.2 | 7.0 | 0.00 | 0.00 | 0.00 | 84 | 1013.4 |
| 20260510041509 | 76 | 118 | 4.3 | 9.6 | 0.00 | 0.00 | 0.00 | 83 | 1013.4 |
| 20260510040008 | 77 | 132 | 6.1 | 9.6 | 0.00 | 0.00 | 0.00 | 83 | 1013.2 |
| 20260510034513 | 77 | 116 | 6.1 | 11.3 | 0.00 | 0.00 | 0.00 | 82 | 1013.5 |
| 20260510033015 | 77 | 101 | 5.2 | 8.7 | 0.00 | 0.00 | 0.00 | 80 | 1013.5 |
| 20260510031517 | 77 | 119 | 6.1 | 10.4 | 0.00 | 0.00 | 0.00 | 79 | 1013.1 |
| 20260510030019 | 78 | 125 | 7.0 | 10.4 | 0.00 | 0.00 | 0.00 | 78 | 1012.6 |
| 20260510024523 | 78 | 141 | 6.1 | 9.6 | 0.00 | 0.00 | 0.00 | 77 | 1012.5 |
| 20260510023025 | 79 | 127 | 6.1 | 7.8 | 0.00 | 0.00 | 0.00 | 76 | 1012.2 |
| 20260510021534 | 80 | 96 | 4.3 | 9.6 | 0.00 | 0.00 | 0.00 | 77 | 1011.8 |
| 20260510020033 | 80 | 144 | 6.1 | 7.8 | 0.00 | 0.00 | 0.00 | 76 | 1011.2 |
| 20260510014540 | 81 | 162 | 7.8 | 12.2 | 0.00 | 0.00 | 0.00 | 75 | 1010.5 |
| 20260510013038 | 82 | 157 | 3.5 | 9.6 | 0.00 | 0.00 | 0.00 | 75 | 1010.5 |
| 20260510011541 | 81 | 155 | 4.3 | 7.8 | 0.00 | 0.00 | 0.00 | 75 | 1010.4 |
| 20260510010043 | 82 | 335 | 5.2 | 9.6 | 0.00 | 0.00 | 0.00 | 72 | 1010.6 |
| 20260510004548 | 85 | 145 | 5.2 | 7.8 | 0.00 | 0.00 | 0.00 | 74 | 1009.9 |
| 20260510003059 | 85 | 136 | 3.5 | 4.3 | 0.00 | 0.00 | 0.00 | 75 | 1010.3 |
| 20260510001559 | 86 | 136 | 3.5 | 6.1 | 0.00 | 0.00 | 0.00 | 74 | 1010.0 |
| 20260510000007 | 86 | 142 | 5.2 | 7.8 | 0.00 | 0.00 | 0.00 | 72 | 1009.8 |
| 20260509234507 | 87 | 128 | 5.2 | 8.7 | 0.00 | 0.00 | 0.00 | 72 | 1009.6 |
| 20260509233011 | 87 | 141 | 6.1 | 8.7 | 0.00 | 0.00 | 0.00 | 72 | 1009.9 |
| 20260509231518 | 86 | 175 | 4.3 | 8.7 | 0.00 | 0.00 | 0.00 | 74 | 1009.8 |
| 20260509230023 | 87 | 140 | 5.2 | 8.7 | 0.00 | 0.00 | 0.00 | 75 | 1009.7 |
| 20260509224524 | 87 | 132 | 4.3 | 8.7 | 0.00 | 0.00 | 0.00 | 75 | 1009.6 |
| 20260509223025 | 87 | 136 | 3.5 | 7.0 | 0.00 | 0.00 | 0.00 | 78 | 1009.4 |
| 20260509221535 | 87 | 250 | 4.3 | 8.7 | 0.00 | 0.00 | 0.00 | 77 | 1009.4 |
| 20260509220034 | 86 | 78 | 0.0 | 4.3 | 0.00 | 0.00 | 0.00 | 81 | 1009.5 |
| 20260509214548 | 86 | 317 | 0.9 | 5.2 | 0.00 | 0.00 | 0.00 | 79 | 1009.5 |
| 20260509213044 | 87 | 286 | 1.7 | 6.1 | 0.00 | 0.00 | 0.00 | 80 | 1009.4 |
| 20260509211552 | 86 | 233 | 5.2 | 8.7 | 0.00 | 0.00 | 0.00 | 78 | 1009.4 |
| 20260509210059 | 85 | 310 | 1.7 | 6.1 | 0.00 | 0.00 | 0.00 | 80 | 1009.6 |
| 20260509204600 | 85 | 336 | 4.3 | 7.0 | 0.00 | 0.00 | 0.00 | 80 | 1009.8 |
| 20260509204502 | 85 | 293 | 5.2 | 7.0 | 0.00 | 0.00 | 0.00 | 80 | 1009.7 |
| 20260509203001 | 84 | 333 | 4.3 | 6.1 | 0.00 | 0.00 | 0.00 | 81 | 1010.0 |
| 20260509201504 | 84 | 298 | 3.5 | 6.1 | 0.00 | 0.00 | 0.00 | 83 | 1010.1 |
| 20260509200004 | 83 | 288 | 4.3 | 7.0 | 0.00 | 0.00 | 0.00 | 83 | 1010.3 |
| 20260509194508 | 82 | 298 | 1.7 | 7.0 | 0.00 | 0.00 | 0.00 | 85 | 1010.4 |
| 20260509193012 | 83 | 293 | 4.3 | 7.0 | 0.00 | 0.00 | 0.00 | 85 | 1010.6 |
| 20260509191517 | 82 | 289 | 5.2 | 7.8 | 0.00 | 0.00 | 0.00 | 86 | 1010.5 |
| 20260509190022 | 81 | 311 | 7.0 | 9.6 | 0.00 | 0.00 | 0.00 | 86 | 1010.5 |
| 20260509184535 | 81 | 302 | 4.3 | 9.6 | 0.00 | 0.00 | 0.00 | 87 | 1010.6 |
| 20260509183030 | 80 | 219 | 1.7 | 6.1 | 0.00 | 0.00 | 0.00 | 89 | 1010.8 |
| 20260509181530 | 79 | 312 | 3.5 | 6.1 | 0.00 | 0.00 | 0.00 | 89 | 1011.2 |
| 20260509180032 | 79 | 336 | 4.3 | 7.0 | 0.00 | 0.00 | 0.00 | 89 | 1011.4 |
| 20260509174534 | 79 | 355 | 4.3 | 7.8 | 0.00 | 0.00 | 0.00 | 91 | 1011.8 |
| 20260509173044 | 78 | 324 | 5.2 | 7.8 | 0.00 | 0.00 | 0.00 | 91 | 1012.1 |
| 20260509171541 | 78 | 306 | 4.3 | 6.1 | 0.00 | 0.00 | 0.00 | 92 | 1012.3 |
| 20260509170032 | 78 | 24 | 0.9 | 4.3 | 0.00 | 0.00 | 0.00 | 93 | 1012.3 |
| 20260509164537 | 78 | 189 | 2.6 | 5.2 | 0.00 | 0.00 | 0.00 | 93 | 1012.4 |
| 20260509163021 | 78 | 151 | 4.3 | 6.1 | 0.00 | 0.00 | 0.00 | 93 | 1012.4 |
| 20260509161529 | 78 | 150 | 2.6 | 6.1 | 0.00 | 0.00 | 0.00 | 93 | 1012.3 |
| 20260509160028 | 77 | 135 | 2.6 | 7.0 | 0.00 | 0.00 | 0.00 | 93 | 1012.1 |
| 20260509154536 | 77 | 151 | 4.3 | 7.0 | 0.00 | 0.00 | 0.00 | 93 | 1011.9 |
| 20260509153038 | 77 | 189 | 1.7 | 4.3 | 0.00 | 0.00 | 0.00 | 94 | 1012.1 |
| 20260509151544 | 76 | 132 | 3.5 | 7.8 | 0.00 | 0.00 | 0.00 | 94 | 1011.7 |
| 20260509150100 | 76 | 134 | 6.1 | 9.6 | 0.00 | 0.00 | 0.00 | 94 | 1011.4 |
| 20260509144656 | 76 | 150 | 7.0 | 11.3 | 0.00 | 0.00 | 0.00 | 94 | 1011.5 |
| 20260509143051 | 76 | 144 | 6.1 | 10.4 | 0.00 | 0.00 | 0.00 | 94 | 1011.6 |
| 20260509141600 | 75 | 113 | 2.6 | 6.1 | 0.00 | 0.00 | 0.00 | 94 | 1011.5 |
| 20260509141505 | 75 | 113 | 1.7 | 6.1 | 0.00 | 0.00 | 0.00 | 94 | 1011.6 |
| 20260509140007 | 76 | 117 | 3.5 | 5.2 | 0.00 | 0.01 | 0.00 | 94 | 1011.2 |
| 20260509134512 | 76 | 92 | 2.6 | 5.2 | 0.00 | 0.01 | 0.00 | 94 | 1011.4 |
| 20260509133019 | 75 | 290 | 1.7 | 5.2 | 0.00 | 0.01 | 0.00 | 94 | 1012.2 |
| 20260509131522 | 75 | 297 | 2.6 | 5.2 | 0.00 | 0.01 | 0.00 | 94 | 1012.4 |
| 20260509130023 | 75 | 249 | 4.3 | 6.1 | 0.00 | 0.04 | 0.00 | 94 | 1012.3 |
| 20260509124526 | 75 | 164 | 3.5 | 4.3 | 0.00 | 0.04 | 0.00 | 94 | 1012.3 |
| 20260509123030 | 75 | 274 | 3.5 | 7.0 | 0.00 | 0.04 | 0.00 | 94 | 1012.1 |
| 20260509121535 | 74 | 150 | 0.0 | 3.5 | 0.00 | 0.04 | 0.00 | 93 | 1012.1 |
| 20260509120040 | 74 | 38 | 0.0 | 0.0 | 0.00 | 0.04 | 0.00 | 93 | 1012.4 |
| 20260509114545 | 74 | 355 | 0.0 | 0.9 | 0.00 | 0.04 | 0.00 | 93 | 1012.1 |
| 20260509113054 | 74 | 355 | 0.0 | 3.5 | 0.00 | 0.04 | 0.00 | 93 | 1011.4 |
| 20260509111555 | 74 | 355 | 0.0 | 0.0 | 0.00 | 0.04 | 0.00 | 93 | 1011.6 |
| 20260509110004 | 74 | 355 | 0.0 | 0.0 | 0.00 | 0.04 | 0.00 | 94 | 1011.7 |
| 20260509104527 | 74 | 58 | 0.9 | 3.5 | 0.00 | 0.04 | 0.00 | 93 | 1011.0 |
| 20260509103011 | 74 | 96 | 0.0 | 0.9 | 0.00 | 0.04 | 0.00 | 93 | 1011.4 |
| 20260509101517 | 74 | 98 | 0.0 | 0.0 | 0.00 | 0.04 | 0.00 | 93 | 1011.2 |
| 20260509100029 | 74 | 98 | 0.0 | 0.0 | 0.00 | 0.04 | 0.00 | 93 | 1011.1 |
| 20260509094533 | 74 | 98 | 0.0 | 0.0 | 0.00 | 0.04 | 0.00 | 93 | 1011.1 |
| 20260509093031 | 74 | 98 | 0.0 | 0.0 | 0.00 | 0.04 | 0.00 | 93 | 1011.0 |
| 20260509091532 | 75 | 98 | 0.0 | 0.0 | 0.00 | 0.04 | 0.00 | 93 | 1010.9 |
| 20260509090035 | 74 | 98 | 0.0 | 3.5 | 0.00 | 0.04 | 0.00 | 93 | 1011.0 |
| 20260509084535 | 75 | 98 | 2.6 | 5.2 | 0.00 | 0.04 | 0.00 | 94 | 1010.9 |